K5NCO Weather Reports


time (UTC)temp
F
wind
direction
speed
knots
gust
knots
rain 1hr
in
rain 24hr
in
rain mn
in
humidity
%
barometer
mb
20260901112232 78 189 0.9 0.9 0.00 0.00 0.00 88 1018.2
20260901111727 78 191 1.7 1.7 0.00 0.00 0.00 88 1018.1
20260901111226 78 234 1.7 1.7 0.00 0.00 0.00 88 1018.1
20260901110720 78 206 0.9 0.9 0.00 0.00 0.00 88 1018.3
20260901110215 78 232 0.9 0.9 0.00 0.00 0.00 88 1018.1
20260901105712 78 196 1.7 1.7 0.00 0.00 0.00 87 1017.9
20260901105211 79 201 2.6 2.6 0.00 0.00 0.00 87 1018.2
20260901104708 79 241 2.6 3.5 0.00 0.00 0.00 87 1018.1
20260901104203 79 222 2.6 2.6 0.00 0.00 0.00 87 1017.7
20260901103702 79 238 2.6 2.6 0.00 0.00 0.00 87 1017.7
20260901103157 79 184 3.5 3.5 0.00 0.00 0.00 86 1017.8
20260901102652 79 216 2.6 2.6 0.00 0.00 0.00 86 1017.7
20260901102151 79 195 0.9 1.7 0.00 0.00 0.00 86 1017.7
20260901101648 79 208 1.7 2.6 0.00 0.00 0.00 86 1017.7
20260901101146 79 227 1.7 1.7 0.00 0.00 0.00 86 1017.7
20260901100641 79 211 2.6 2.6 0.00 0.00 0.00 86 1017.8
20260901100136 79 209 2.6 2.6 0.00 0.00 0.00 86 1017.7
20260901095634 79 204 3.5 5.2 0.00 0.00 0.00 85 1017.5
20260901095132 79 225 3.5 3.5 0.00 0.00 0.00 85 1017.7
20260901094626 80 234 0.9 1.7 0.00 0.00 0.00 84 1017.8
20260901094121 80 228 0.9 0.9 0.00 0.00 0.00 84 1017.6
20260901093616 80 230 1.7 1.7 0.00 0.00 0.00 84 1017.7
20260901093115 80 210 2.6 2.6 0.00 0.00 0.00 83 1017.7
20260901092611 80 171 3.5 3.5 0.00 0.00 0.00 83 1017.9
20260901092107 80 184 2.6 3.5 0.00 0.00 0.00 83 1017.8
20260901091603 80 193 1.7 1.7 0.00 0.00 0.00 82 1017.8
20260901091058 80 181 0.9 1.7 0.00 0.00 0.00 82 1017.8
20260901090557 80 181 2.6 2.6 0.00 0.00 0.00 82 1017.8
20260901090053 80 136 2.6 2.6 0.00 0.00 0.00 81 1017.8
20260901085548 80 184 1.7 1.7 0.00 0.00 0.00 81 1017.7
20260901085044 81 174 1.7 2.6 0.00 0.00 0.00 81 1018.1
20260901084540 81 150 2.6 2.6 0.00 0.00 0.00 80 1017.7
20260901084036 81 128 1.7 1.7 0.00 0.00 0.00 80 1017.6
20260901083530 81 173 2.6 2.6 0.00 0.00 0.00 79 1017.7
20260901083028 81 179 2.6 2.6 0.00 0.00 0.00 79 1017.4
20260901082524 81 169 1.7 2.6 0.00 0.00 0.00 79 1017.8
20260901082019 81 174 2.6 2.6 0.00 0.00 0.00 78 1017.6
20260901081514 81 187 0.9 1.7 0.00 0.00 0.00 78 1017.7
20260901081008 82 107 0.9 1.7 0.00 0.00 0.00 78 1017.6
20260901080508 82 183 5.2 5.2 0.00 0.00 0.00 77 1017.8
20260901080002 82 159 1.7 2.6 0.00 0.00 0.00 77 1017.8
20260901075458 82 112 1.7 2.6 0.00 0.00 0.00 77 1017.8
20260901074956 82 131 2.6 2.6 0.00 0.00 0.00 77 1017.8
20260901074451 82 180 3.5 3.5 0.00 0.00 0.00 77 1017.7
20260901073946 82 201 2.6 3.5 0.00 0.00 0.00 76 1017.9
20260901073443 82 137 4.3 5.2 0.00 0.00 0.00 76 1017.9
20260901072943 82 157 2.6 2.6 0.00 0.00 0.00 75 1017.7
20260901072438 82 127 1.7 1.7 0.00 0.00 0.00 74 1017.7
20260901071933 82 97 0.9 1.7 0.00 0.00 0.00 74 1018.1
20260901071432 82 140 0.9 0.9 0.00 0.00 0.00 73 1018.1
20260901070932 83 165 2.6 2.6 0.00 0.00 0.00 73 1017.8
20260901070427 83 179 2.6 2.6 0.00 0.00 0.00 73 1017.9
20260901065926 82 191 4.3 7.0 0.00 0.00 0.00 73 1017.8
20260901065422 83 98 0.9 1.7 0.00 0.00 0.00 73 1017.6
20260901064916 83 166 4.3 6.1 0.00 0.00 0.00 73 1017.9
20260901064413 83 155 4.3 6.1 0.00 0.00 0.00 74 1017.6
20260901063910 83 138 1.7 2.6 0.00 0.00 0.00 74 1017.7
20260901063406 83 162 3.5 6.1 0.00 0.00 0.00 74 1017.6
20260901062856 83 148 2.6 3.5 0.00 0.00 0.00 74 1017.7
20260901062352 83 118 2.6 2.6 0.00 0.00 0.00 74 1017.7
20260901061847 83 159 7.8 8.7 0.00 0.00 0.00 73 1017.5
20260901061342 83 83 3.5 3.5 0.00 0.00 0.00 73 1017.5
20260901060832 83 170 6.1 7.8 0.00 0.00 0.00 72 1017.5
20260901060328 83 148 3.5 3.5 0.00 0.00 0.00 72 1017.5
20260901055827 84 163 1.7 2.6 0.00 0.00 0.00 71 1017.4
20260901055324 84 151 2.6 3.5 0.00 0.00 0.00 71 1017.6
20260901054820 84 169 4.3 7.0 0.00 0.00 0.00 70 1017.5
20260901054317 84 184 5.2 7.0 0.00 0.00 0.00 69 1017.6
20260901053813 84 150 5.2 6.1 0.00 0.00 0.00 69 1017.4
20260901053307 84 142 5.2 7.8 0.00 0.00 0.00 68 1017.4
20260901052757 84 111 3.5 5.2 0.00 0.00 0.00 68 1017.5
20260901052253 84 127 2.6 3.5 0.00 0.00 0.00 68 1017.2
20260901051751 84 164 4.3 6.1 0.00 0.00 0.00 67 1017.3
20260901051246 85 136 5.2 6.1 0.00 0.00 0.00 67 1017.2
20260901050742 85 132 5.2 7.0 0.00 0.00 0.00 67 1017.2
20260901050237 85 186 2.6 3.5 0.00 0.00 0.00 66 1017.1
20260901045732 85 108 3.5 5.2 0.00 0.00 0.00 66 1016.9
20260901045227 85 173 3.5 5.2 0.00 0.00 0.00 66 1017.1
20260901044722 85 199 1.7 2.6 0.00 0.00 0.00 66 1017.0
20260901044219 85 105 5.2 6.1 0.00 0.00 0.00 65 1017.1
20260901043714 86 146 2.6 6.1 0.00 0.00 0.00 65 1017.1
20260901043209 86 159 1.7 2.6 0.00 0.00 0.00 65 1017.1
20260901042709 86 209 6.1 7.8 0.00 0.00 0.00 64 1017.0
20260901042203 86 212 1.7 2.6 0.00 0.00 0.00 64 1017.0
20260901041659 86 116 6.1 7.0 0.00 0.00 0.00 63 1016.8
20260901041158 86 116 7.8 8.7 0.00 0.00 0.00 63 1016.8
20260901040654 86 74 5.2 7.0 0.00 0.00 0.00 62 1016.8
20260901040147 86 113 4.3 7.0 0.00 0.00 0.00 61 1017.0
20260901035646 87 139 7.0 7.0 0.00 0.00 0.00 61 1016.8
20260901035144 87 139 3.5 5.2 0.00 0.00 0.00 60 1016.9
20260901034638 87 119 6.1 7.8 0.00 0.00 0.00 60 1016.8
20260901034133 87 112 4.3 7.8 0.00 0.00 0.00 59 1016.9
20260901033632 87 146 8.7 9.6 0.00 0.00 0.00 59 1017.2
20260901033132 87 139 5.2 7.0 0.00 0.00 0.00 58 1016.8
20260901032630 87 133 6.1 7.8 0.00 0.00 0.00 58 1016.9
20260901032126 88 67 6.1 8.7 0.00 0.00 0.00 57 1016.7
20260901031621 88 114 7.0 9.6 0.00 0.00 0.00 56 1016.8
20260901031117 88 115 2.6 3.5 0.00 0.00 0.00 56 1016.7
20260901030617 89 149 7.8 12.2 0.00 0.00 0.00 54 1016.5
20260901030112 89 116 5.2 7.0 0.00 0.00 0.00 53 1016.6
20260901025606 89 62 4.3 7.0 0.00 0.00 0.00 51 1016.4
20260901025101 89 100 2.6 3.5 0.00 0.00 0.00 50 1016.4
20260901024555 90 137 4.3 6.1 0.00 0.00 0.00 48 1016.3
20260901024054 90 110 4.3 5.2 0.00 0.00 0.00 47 1016.1
20260901023553 90 153 3.5 3.5 0.00 0.00 0.00 46 1016.1
20260901023048 90 84 2.6 2.6 0.00 0.00 0.00 45 1015.9
20260901022543 90 121 3.5 5.2 0.00 0.00 0.00 45 1015.9
20260901022039 90 78 1.7 2.6 0.00 0.00 0.00 45 1015.9
20260901021534 90 68 4.3 5.2 0.00 0.00 0.00 44 1015.8
20260901021030 90 81 1.7 2.6 0.00 0.00 0.00 44 1015.8
20260901020525 91 80 3.5 3.5 0.00 0.00 0.00 44 1015.6
20260901020020 91 113 0.9 1.7 0.00 0.00 0.00 44 1015.7
20260901015516 91 123 3.5 5.2 0.00 0.00 0.00 43 1015.5
20260901015015 91 106 1.7 1.7 0.00 0.00 0.00 44 1015.6
20260901014511 91 100 2.6 2.6 0.00 0.00 0.00 43 1015.3
20260901014007 91 84 0.9 1.7 0.00 0.00 0.00 44 1015.3
20260901013502 92 94 2.6 3.5 0.00 0.00 0.00 43 1015.4
20260901012958 92 85 1.7 1.7 0.00 0.00 0.00 43 1015.5
20260901012457 92 49 0.0 0.0 0.00 0.00 0.00 43 1015.4
20260901011953 92 70 3.5 5.2 0.00 0.00 0.00 42 1015.4
20260901011449 92 69 2.6 3.5 0.00 0.00 0.00 43 1015.3
20260901010946 92 67 1.7 2.6 0.00 0.00 0.00 43 1015.0
20260901010442 93 72 1.7 2.6 0.00 0.00 0.00 42 1015.2
20260901005941 93 74 0.9 0.9 0.00 0.00 0.00 42 1015.2
20260901005436 93 94 1.7 1.7 0.00 0.00 0.00 41 1015.1
20260901004931 94 109 2.6 3.5 0.00 0.00 0.00 40 1015.2
20260901004430 94 72 1.7 2.6 0.00 0.00 0.00 40 1015.1
20260901003925 94 72 3.5 3.5 0.00 0.00 0.00 39 1015.1
20260901003420 95 78 3.5 3.5 0.00 0.00 0.00 39 1015.2
20260901002918 95 115 2.6 2.6 0.00 0.00 0.00 39 1015.0
20260901002413 95 82 3.5 5.2 0.00 0.00 0.00 38 1015.1
20260901001908 95 131 3.5 6.1 0.00 0.00 0.00 39 1015.1
20260901001403 95 101 2.6 2.6 0.00 0.00 0.00 39 1015.0
20260901000858 95 105 3.5 3.5 0.00 0.00 0.00 39 1015.1
20260901000353 95 108 3.5 5.2 0.00 0.00 0.00 39 1015.1
20260831235851 95 52 7.8 8.7 0.00 0.00 0.00 38 1015.0
20260831235348 95 92 3.5 5.2 0.00 0.00 0.00 38 1014.9
20260831234842 95 89 6.1 7.0 0.00 0.00 0.00 38 1014.9
20260831234337 95 80 3.5 7.8 0.00 0.00 0.00 38 1014.9
20260831233832 95 77 4.3 5.2 0.00 0.00 0.00 38 1014.8
20260831233327 95 59 3.5 5.2 0.00 0.00 0.00 38 1014.9
20260831232823 95 76 7.0 9.6 0.00 0.00 0.00 38 1014.9
20260831232319 96 66 3.5 5.2 0.00 0.00 0.00 39 1015.0
20260831231815 96 89 5.2 7.0 0.00 0.00 0.00 38 1014.9
20260831231311 96 56 7.8 8.7 0.00 0.00 0.00 38 1014.9
20260831230806 96 49 3.5 5.2 0.00 0.00 0.00 39 1015.1
20260831230301 96 76 3.5 3.5 0.00 0.00 0.00 38 1015.0
20260831225800 96 94 6.1 7.0 0.00 0.00 0.00 38 1015.0
20260831225255 97 102 7.0 9.6 0.00 0.00 0.00 39 1015.0
20260831224751 97 32 2.6 3.5 0.00 0.00 0.00 39 1014.9
20260831224246 97 156 3.5 3.5 0.00 0.00 0.00 38 1015.0
20260831223741 97 123 2.6 5.2 0.00 0.00 0.00 38 1015.2
20260831223237 98 42 3.5 3.5 0.00 0.00 0.00 37 1015.2
20260831222733 97 108 5.2 7.0 0.00 0.00 0.00 36 1015.2
20260831222228 97 129 4.3 6.1 0.00 0.00 0.00 36 1015.3
20260831221724 97 147 7.0 11.3 0.00 0.00 0.00 36 1015.1
20260831221219 97 118 1.7 2.6 0.00 0.00 0.00 38 1015.2
20260831220714 97 236 2.6 2.6 0.00 0.00 0.00 38 1015.2
20260831220209 96 185 0.9 1.7 0.00 0.00 0.00 38 1015.2
20260831215704 96 175 3.5 3.5 0.00 0.00 0.00 38 1015.4
20260831215200 97 130 2.6 3.5 0.00 0.00 0.00 38 1015.5
20260831214657 95 118 1.7 2.6 0.00 0.00 0.00 40 1015.6
20260831214154 95 120 3.5 6.1 0.00 0.00 0.00 40 1015.6
20260831213649 96 191 1.7 2.6 0.00 0.00 0.00 40 1015.6
20260831213145 96 116 7.0 8.7 0.00 0.00 0.00 40 1015.7
20260831212640 96 56 2.6 5.2 0.00 0.00 0.00 42 1015.7
20260831212137 96 156 3.5 3.5 0.00 0.00 0.00 40 1015.7
20260831211635 96 66 6.1 8.7 0.00 0.00 0.00 39 1015.8
20260831211130 96 191 5.2 6.1 0.00 0.00 0.00 41 1016.0
20260831210625 95 150 3.5 5.2 0.00 0.00 0.00 42 1016.2
20260831210121 95 147 2.6 3.5 0.00 0.00 0.00 42 1016.1
20260831205620 96 101 7.0 7.8 0.00 0.00 0.00 43 1016.1
20260831205116 96 140 2.6 2.6 0.00 0.00 0.00 43 1016.1
20260831204616 96 214 3.5 3.5 0.00 0.00 0.00 41 1016.3
20260831204114 96 182 8.7 8.7 0.00 0.00 0.00 42 1016.5
20260831203609 95 126 5.2 7.0 0.00 0.00 0.00 42 1016.7
20260831203108 94 173 3.5 3.5 0.00 0.00 0.00 45 1016.8
20260831202608 94 90 3.5 3.5 0.00 0.00 0.00 47 1016.6
20260831202107 95 102 1.7 2.6 0.00 0.00 0.00 46 1016.8
20260831201606 96 216 1.7 2.6 0.00 0.00 0.00 43 1016.9
20260831201101 94 150 3.5 5.2 0.00 0.00 0.00 45 1016.8
20260831200557 93 98 2.6 2.6 0.00 0.00 0.00 48 1017.0
20260831200052 93 145 6.1 7.0 0.00 0.00 0.00 47 1017.0
20260831195548 93 36 3.5 5.2 0.00 0.00 0.00 48 1017.2
20260831195043 93 157 1.7 2.6 0.00 0.00 0.00 47 1017.2
20260831194538 95 196 1.7 2.6 0.00 0.00 0.00 46 1017.2
20260831194033 95 97 3.5 5.2 0.00 0.00 0.00 46 1017.2
20260831193528 95 190 7.0 8.7 0.00 0.00 0.00 47 1017.4
20260831193023 94 101 5.2 6.1 0.00 0.00 0.00 49 1017.4
20260831192517 94 94 3.5 6.1 0.00 0.00 0.00 48 1017.4
20260831192012 93 152 1.7 3.5 0.00 0.00 0.00 48 1017.5
20260831191503 95 92 1.7 2.6 0.00 0.00 0.00 46 1017.7
20260831190959 94 164 8.7 9.6 0.00 0.00 0.00 48 1017.6
20260831190454 93 151 4.3 6.1 0.00 0.00 0.00 48 1017.9
20260831185952 92 207 2.6 3.5 0.00 0.00 0.00 50 1017.9
20260831185449 93 201 4.3 5.2 0.00 0.00 0.00 49 1017.9
20260831184949 92 135 4.3 5.2 0.00 0.00 0.00 50 1017.8
20260831184443 93 142 3.5 5.2 0.00 0.00 0.00 50 1017.9
20260831183939 93 199 5.2 7.0 0.00 0.00 0.00 51 1017.9
20260831183437 93 121 7.8 11.3 0.00 0.00 0.00 50 1018.2
20260831182932 93 188 4.3 5.2 0.00 0.00 0.00 50 1018.3
20260831182427 92 151 6.1 7.0 0.00 0.00 0.00 51 1018.3
20260831181922 93 153 5.2 7.8 0.00 0.00 0.00 51 1018.3
20260831181417 91 119 2.6 3.5 0.00 0.00 0.00 54 1018.4
20260831180912 92 67 7.8 12.2 0.00 0.00 0.00 53 1018.3
20260831180406 92 134 0.9 1.7 0.00 0.00 0.00 55 1018.5
20260831175905 91 106 6.1 7.0 0.00 0.00 0.00 53 1018.4
20260831175402 92 186 3.5 5.2 0.00 0.00 0.00 52 1018.6
20260831174857 91 111 0.0 0.9 0.00 0.00 0.00 54 1018.6
20260831174347 91 55 3.5 5.2 0.00 0.00 0.00 55 1018.8
20260831173846 92 172 5.2 7.0 0.00 0.00 0.00 55 1018.9
20260831173340 91 185 7.0 7.8 0.00 0.00 0.00 52 1019.0
20260831172836 91 176 5.2 6.1 0.00 0.00 0.00 53 1019.1
20260831172331 91 88 10.4 12.2 0.00 0.00 0.00 54 1018.9
20260831171831 90 146 4.3 7.0 0.00 0.00 0.00 56 1019.0
20260831171327 90 76 2.6 2.6 0.00 0.00 0.00 58 1019.1
20260831170824 90 75 3.5 6.1 0.00 0.00 0.00 58 1019.2
20260831170320 90 179 3.5 3.5 0.00 0.00 0.00 58 1019.4
20260831165816 90 170 7.0 7.8 0.00 0.00 0.00 59 1019.5
20260831165312 89 164 7.0 7.8 0.00 0.00 0.00 57 1019.3
20260831164808 89 178 4.3 6.1 0.00 0.00 0.00 60 1019.2
20260831164304 89 206 7.8 8.7 0.00 0.00 0.00 60 1019.3
20260831163759 89 139 4.3 7.0 0.00 0.00 0.00 59 1019.1
20260831163255 88 77 1.7 2.6 0.00 0.00 0.00 60 1019.3
20260831162753 88 144 5.2 8.7 0.00 0.00 0.00 59 1019.1
20260831162248 88 158 4.3 6.1 0.00 0.00 0.00 64 1019.4
20260831161742 87 83 4.3 5.2 0.00 0.00 0.00 63 1019.1
20260831161238 88 120 5.2 7.8 0.00 0.00 0.00 65 1019.1
20260831160738 87 128 1.7 2.6 0.00 0.00 0.00 68 1019.2
20260831160228 87 132 7.0 8.7 0.00 0.00 0.00 69 1019.2
20260831155727 87 93 3.5 5.2 0.00 0.00 0.00 68 1019.1
20260831155223 87 170 0.0 0.0 0.00 0.00 0.00 68 1019.2
20260831154719 85 179 2.6 3.5 0.00 0.00 0.00 70 1019.3
20260831154215 86 157 3.5 3.5 0.00 0.00 0.00 71 1019.2
20260831153713 85 81 1.7 2.6 0.00 0.00 0.00 73 1019.2
20260831153209 86 121 3.5 3.5 0.00 0.00 0.00 72 1019.2
20260831152705 85 130 1.7 2.6 0.00 0.00 0.00 73 1019.2
20260831152200 86 120 5.2 6.1 0.00 0.00 0.00 72 1019.1
20260831151655 86 178 6.1 7.0 0.00 0.00 0.00 72 1019.2
20260831151149 85 135 6.1 7.0 0.00 0.00 0.00 72 1019.2
20260831150644 85 181 5.2 6.1 0.00 0.00 0.00 73 1019.0
20260831150140 85 110 1.7 2.6 0.00 0.00 0.00 73 1018.9
20260831145638 85 154 0.9 1.7 0.00 0.00 0.00 75 1018.8
20260831145135 84 233 1.7 1.7 0.00 0.00 0.00 76 1018.7
20260831144631 84 216 1.7 2.6 0.00 0.00 0.00 78 1018.8
20260831144126 83 162 4.3 5.2 0.00 0.00 0.00 79 1018.9
20260831143626 82 207 3.5 3.5 0.00 0.00 0.00 80 1019.0
20260831143121 82 201 4.3 6.1 0.00 0.00 0.00 80 1018.9
20260831142618 81 267 2.6 2.6 0.00 0.00 0.00 83 1018.8
20260831142113 81 218 4.3 5.2 0.00 0.00 0.00 83 1018.9
20260831141612 81 231 1.7 2.6 0.00 0.00 0.00 84 1018.9
20260831141107 81 206 3.5 6.1 0.00 0.00 0.00 85 1018.8
20260831140607 81 216 2.6 2.6 0.00 0.00 0.00 86 1018.7
20260831135559 80 243 2.6 2.6 0.00 0.00 0.00 87 1018.6
20260831135055 81 225 4.3 7.0 0.00 0.00 0.00 86 1018.5
20260831134550 80 232 3.5 3.5 0.00 0.00 0.00 87 1018.7
20260831134045 80 180 3.5 3.5 0.00 0.00 0.00 88 1018.5
20260831133544 80 243 1.7 2.6 0.00 0.00 0.00 88 1018.5
20260831133039 80 212 3.5 5.2 0.00 0.00 0.00 89 1018.5
20260831132536 80 197 3.5 5.2 0.00 0.00 0.00 89 1018.2
20260831132034 80 166 4.3 5.2 0.00 0.00 0.00 89 1018.4
20260831131529 79 194 5.2 7.0 0.00 0.00 0.00 89 1018.3
20260831131025 80 176 6.1 6.1 0.00 0.00 0.00 89 1018.3
20260831130520 79 173 3.5 5.2 0.00 0.00 0.00 90 1018.4
20260831130016 80 204 2.6 2.6 0.00 0.00 0.00 89 1018.2
20260831125509 79 210 1.7 1.7 0.00 0.00 0.00 89 1018.2
20260831125005 79 158 2.6 3.5 0.00 0.00 0.00 90 1017.9
20260831124501 79 218 3.5 6.1 0.00 0.00 0.00 90 1017.8
20260831123956 79 182 3.5 3.5 0.00 0.00 0.00 90 1017.8
20260831123455 79 206 1.7 1.7 0.00 0.00 0.00 90 1017.8
20260831122949 79 185 2.6 5.2 0.00 0.00 0.00 90 1017.7
20260831122445 79 208 2.6 3.5 0.00 0.00 0.00 90 1017.7
20260831121940 79 203 1.7 2.6 0.00 0.00 0.00 90 1017.8
20260831121436 79 224 2.6 3.5 0.00 0.00 0.00 90 1017.9
20260831120931 79 205 3.5 3.5 0.00 0.00 0.00 90 1017.7
20260831120426 79 225 2.6 3.5 0.00 0.00 0.00 89 1017.6
20260831115926 79 197 3.5 3.5 0.00 0.00 0.00 89 1017.7
20260831115422 79 221 4.3 6.1 0.00 0.00 0.00 89 1017.6
20260831114922 79 189 1.7 1.7 0.00 0.00 0.00 89 1017.7
20260831114421 79 185 1.7 2.6 0.00 0.00 0.00 89 1017.8
20260831113916 79 123 3.5 5.2 0.00 0.00 0.00 89 1017.5
20260831113416 79 213 4.3 5.2 0.00 0.00 0.00 89 1017.7
20260831112911 79 212 1.7 2.6 0.00 0.00 0.00 89 1017.8
20260831112406 79 199 3.5 5.2 0.00 0.00 0.00 89 1017.8